{"data":{"norad_id":42070,"intl_designator":"2017-014A","name":"ECHOSTAR 23","alt_names":[],"object_type":"PAYLOAD","status":"ACTIVE","operator":null,"country":"US","launch_date":"2017-03-16","launch_site_code":"AFETR","launch_vehicle":null,"mission":null,"orbit_class":"UNKNOWN","rcs_meters":13.1623,"size_class":null,"mass_kg":null,"dimensions":null,"purposes":["comms"],"wikipedia_slug":null,"has_3d_model":false,"image_url":null,"decayed_at":null,"tle_current":{"epoch":"2026-05-24T23:47:57.420384Z","epoch_age_seconds":76107,"freshness":"FRESH","line1":"1 42070U 17014A   26144.99163681 -.00000060  00000+0  00000+0 0  9991","line2":"2 42070   0.0182 307.9842 0002094 120.8535  60.8345  1.00272052 33694","mean_motion":1.00272052,"eccentricity":0.0002094,"inclination_deg":0.0182,"raan_deg":307.9842,"arg_perigee_deg":120.8535,"mean_anomaly_deg":60.8345,"bstar":0,"rev_number":3369,"period_min":1436.0930800539,"perigee_km":35777.690832365,"apogee_km":35795.349390764,"semimajor_km":42164.657111564,"source":"CELESTRAK","updated_at":"2026-05-25T13:38:14.041374Z"}}}